Tiempo cada hora Abazivka

Hoy, 26 Octubre, Lunes

Tiempo Temperatura Precipitaciones Viento Presión Humedad
00:00 +9°C° 0 mm 2 mps 753 mmHg 78%
01:00 +9°C° 0 mm 2 mps 753 mmHg 79%
02:00 +9°C° 0 mm 2 mps 753 mmHg 80%
03:00 +9°C° 0 mm 2 mps 753 mmHg 81%
04:00 +8°C° 0 mm 3 mps 753 mmHg 81%
05:00 +8°C° 0 mm 3 mps 753 mmHg 82%
06:00 +9°C° 0 mm 3 mps 753 mmHg 79%
07:00 +9°C° 0 mm 3 mps 753 mmHg 76%
08:00 +10°C° 0 mm 3 mps 753 mmHg 73%
09:00 +11°C° 0 mm 4 mps 753 mmHg 67%
10:00 +13°C° 0 mm 4 mps 753 mmHg 61%
11:00 +14°C° 0 mm 4 mps 753 mmHg 54%
12:00 +15°C° 0 mm 4 mps 753 mmHg 52%
13:00 +15°C° 0 mm 4 mps 753 mmHg 50%
14:00 +17°C° 0 mm 4 mps 753 mmHg 48%
15:00 +15°C° 0 mm 4 mps 752 mmHg 51%
16:00 +14°C° 0 mm 4 mps 752 mmHg 53%
17:00 +13°C° 0 mm 3 mps 752 mmHg 56%
18:00 +13°C° 0 mm 3 mps 752 mmHg 57%
19:00 +12°C° 0 mm 4 mps 753 mmHg 58%
20:00 +12°C° 0 mm 4 mps 753 mmHg 58%
21:00 +12°C° 0 mm 4 mps 753 mmHg 59%
22:00 +11°C° 0 mm 4 mps 753 mmHg 60%
23:00 +10°C° 0 mm 5 mps 753 mmHg 61%

Mañana, 27 Octubre, Martes

Tiempo Temperatura Precipitaciones Viento Presión Humedad
00:00 +10°C° 0 mm 5 mps 753 mmHg 62%
01:00 +10°C° 0 mm 4 mps 753 mmHg 64%
02:00 +10°C° 0 mm 4 mps 753 mmHg 65%
03:00 +10°C° 0 mm 4 mps 753 mmHg 66%
04:00 +8°C° 0 mm 4 mps 753 mmHg 66%
05:00 +8°C° 0 mm 5 mps 753 mmHg 66%
06:00 +8°C° 0 mm 5 mps 753 mmHg 65%
07:00 +9°C° 0 mm 5 mps 753 mmHg 63%
08:00 +9°C° 0 mm 5 mps 753 mmHg 62%
09:00 +10°C° 0 mm 5 mps 754 mmHg 57%
10:00 +12°C° 0 mm 5 mps 754 mmHg 53%
11:00 +14°C° 0 mm 6 mps 754 mmHg 48%
12:00 +14°C° 0 mm 6 mps 754 mmHg 47%
13:00 +15°C° 0 mm 6 mps 753 mmHg 45%
14:00 +16°C° 0 mm 6 mps 753 mmHg 44%
15:00 +14°C° 0 mm 5 mps 753 mmHg 47%
16:00 +13°C° 0 mm 4 mps 753 mmHg 51%
17:00 +12°C° 0 mm 4 mps 753 mmHg 54%
18:00 +12°C° 0 mm 4 mps 754 mmHg 55%
19:00 +11°C° 0 mm 4 mps 754 mmHg 57%
20:00 +11°C° 0 mm 4 mps 754 mmHg 58%
21:00 +10°C° 0 mm 4 mps 754 mmHg 59%
22:00 +10°C° 0 mm 4 mps 754 mmHg 61%
23:00 +10°C° 0 mm 4 mps 754 mmHg 63%

Pasado mañana, 28 Octubre, Miércoles

Tiempo Temperatura Precipitaciones Viento Presión Humedad
00:00 +8°C° 0 mm 4 mps 754 mmHg 64%
01:00 +8°C° 0 mm 4 mps 754 mmHg 66%
02:00 +7°C° 0 mm 4 mps 754 mmHg 68%
03:00 +7°C° 0 mm 4 mps 754 mmHg 71%
04:00 +6°C° 0 mm 4 mps 754 mmHg 74%
05:00 +6°C° 0 mm 4 mps 755 mmHg 77%
06:00 +6°C° 0 mm 4 mps 755 mmHg 74%
07:00 +6°C° 0 mm 5 mps 755 mmHg 72%
08:00 +7°C° 0 mm 5 mps 755 mmHg 69%
09:00 +8°C° 0 mm 5 mps 755 mmHg 63%
10:00 +9°C° 0 mm 5 mps 754 mmHg 57%
11:00 +12°C° 0 mm 5 mps 754 mmHg 52%
12:00 +12°C° 0 mm 5 mps 754 mmHg 50%
13:00 +13°C° 0 mm 5 mps 754 mmHg 48%
14:00 +14°C° 0 mm 5 mps 754 mmHg 47%
15:00 +12°C° 0 mm 5 mps 754 mmHg 49%
16:00 +11°C° 0 mm 4 mps 753 mmHg 52%
17:00 +10°C° 0 mm 4 mps 753 mmHg 54%
18:00 +10°C° 0 mm 4 mps 753 mmHg 52%
19:00 +8°C° 0 mm 4 mps 753 mmHg 49%
20:00 +8°C° 0 mm 4 mps 753 mmHg 47%
21:00 +8°C° 0 mm 4 mps 753 mmHg 47%
22:00 +7°C° 0 mm 4 mps 753 mmHg 48%
23:00 +7°C° 0 mm 4 mps 753 mmHg 48%

29 Octubre, Jueves

Tiempo Temperatura Precipitaciones Viento Presión Humedad
00:00 +6°C° 0 mm 4 mps 753 mmHg 50%
01:00 +6°C° 0 mm 4 mps 753 mmHg 51%
02:00 +6°C° 0 mm 4 mps 753 mmHg 53%
03:00 +5°C° 0 mm 4 mps 753 mmHg 54%
04:00 +5°C° 0 mm 4 mps 753 mmHg 55%
05:00 +4°C° 0 mm 4 mps 753 mmHg 57%
06:00 +5°C° 0 mm 4 mps 753 mmHg 56%
07:00 +5°C° 0 mm 4 mps 753 mmHg 56%
08:00 +5°C° 0 mm 4 mps 753 mmHg 55%
09:00 +7°C° 0 mm 4 mps 753 mmHg 53%
10:00 +8°C° 0 mm 4 mps 753 mmHg 51%
11:00 +11°C° 0 mm 4 mps 753 mmHg 49%
12:00 +11°C° 0 mm 3 mps 752 mmHg 49%
13:00 +12°C° 0 mm 3 mps 752 mmHg 49%
14:00 +12°C° 0 mm 3 mps 752 mmHg 50%
15:00 +11°C° 0 mm 3 mps 752 mmHg 54%
16:00 +10°C° 0 mm 2 mps 752 mmHg 59%
17:00 +9°C° 0 mm 2 mps 752 mmHg 63%
18:00 +9°C° 0 mm 2 mps 752 mmHg 65%
19:00 +8°C° 0 mm 2 mps 752 mmHg 67%
20:00 +8°C° 0 mm 2 mps 752 mmHg 69%
21:00 +9°C° 0 mm 1 mps 752 mmHg 70%
22:00 +9°C° 0 mm 1 mps 752 mmHg 71%
23:00 +8°C° 0 mm 1 mps 752 mmHg 72%

30 Octubre, Viernes

Tiempo Temperatura Precipitaciones Viento Presión Humedad
00:00 +8°C° 0 mm 1 mps 752 mmHg 73%
01:00 +8°C° 0 mm 1 mps 752 mmHg 73%
02:00 +8°C° 0 mm 1 mps 752 mmHg 74%
03:00 +8°C° 0 mm 1 mps 752 mmHg 74%
04:00 +8°C° 0 mm 1 mps 752 mmHg 75%
05:00 +7°C° 0 mm 2 mps 752 mmHg 76%
06:00 +7°C° 0 mm 2 mps 752 mmHg 75%
07:00 +7°C° 0 mm 2 mps 752 mmHg 73%
08:00 +8°C° 0 mm 2 mps 753 mmHg 72%
09:00 +9°C° 0 mm 2 mps 753 mmHg 66%
10:00 +10°C° 0 mm 2 mps 753 mmHg 61%
11:00 +13°C° 0 mm 2 mps 753 mmHg 55%
12:00 +13°C° 0 mm 2 mps 753 mmHg 54%
13:00 +13°C° 0 mm 3 mps 753 mmHg 52%
14:00 +13°C° 0 mm 3 mps 753 mmHg 51%
15:00 +12°C° 0 mm 3 mps 753 mmHg 56%
16:00 +11°C° 0 mm 3 mps 753 mmHg 60%
17:00 +10°C° 0 mm 2 mps 753 mmHg 65%
18:00 +9°C° 0 mm 2 mps 753 mmHg 68%
19:00 +9°C° 0 mm 2 mps 753 mmHg 70%
20:00 +8°C° 0 mm 2 mps 754 mmHg 73%
21:00 +8°C° 0 mm 2 mps 754 mmHg 74%
22:00 +7°C° 0 mm 2 mps 754 mmHg 76%
23:00 +7°C° 0 mm 2 mps 754 mmHg 78%

31 Octubre, Sábado

Tiempo Temperatura Precipitaciones Viento Presión Humedad
00:00 +7°C° 0 mm 2 mps 754 mmHg 79%
01:00 +6°C° 0 mm 2 mps 754 mmHg 81%
02:00 +6°C° 0 mm 2 mps 754 mmHg 82%
03:00 +6°C° 0 mm 2 mps 754 mmHg 84%
04:00 +6°C° 0 mm 2 mps 754 mmHg 86%
05:00 +5°C° 0 mm 2 mps 755 mmHg 87%
06:00 +6°C° 0 mm 2 mps 755 mmHg 85%
07:00 +7°C° 0 mm 2 mps 755 mmHg 84%
08:00 +8°C° 0 mm 1 mps 755 mmHg 82%
Mostrar más

Necesitamos Su Consentimiento

Meteoprog y nuestros Proveedores de Servicios pueden almacenar y acceder a sus datos personales como cookies, identificadores de dispositivo u otras tecnologías similares de su dispositivo y procesar dichos datos para personalizar contenido y anuncios, además de ofrecer funciones de redes sociales y analizar el tráfico.

  • Almacenar y/o acceder a información en su dispositivo

    Se puede almacenar o acceder a cookies, identificadores de dispositivo u otra información de su dispositivo para los fines anteriormente indicados.

  • Anuncios y contenido personalizados, medición de anuncios y contenido, percepciones del público, y desarrollo de productos

    Los anuncios y el contenido pueden personalizarse en base a su perfil. Se pueden añadir más datos para personalizar mejor los anuncios y contenidos. Se puede medir el rendimiento de los anuncios y contenidos. Se puede obtener la percepción sobre el público que ha visto los anuncios y contenidos. Dichos datos pueden usarse para desarrollar o mejorar la experiencia del usuario, sistemas y software.

Al hacer clic en ‘Estoy De Acuerdo’ usted permitirá el uso de las cookies, identificadores de dispositivo, balizas web u otras tecnologías similares indicadas. Su configuración puede cambiarse desde el navegador de su dispositivo.

Para ciertos fines, los intereses legítimos pueden ser considerados por encima del consentimiento. Puede leer más sobre ello en nuestra Política de Privacidad y Cookies.